Time,TemperatureF,DewpointF,PressureIn,WindDirection,WindDirectionDegrees,WindSpeedMPH,WindSpeedGustMPH,Humidity,HourlyPrecipIn,Conditions,Clouds,dailyrainin,SoftwareType,DateUTC
2013-01-24 00:03:00,17.0,15.0,-100.00,SSW,195,1.0,2.0,91,1.10,,,-99.99,,2013-01-24 05:03:00,
2013-01-24 00:12:00,17.0,15.0,-100.00,SW,225,0.0,1.0,92,6.77,,,-99.99,,2013-01-24 05:12:00,
2013-01-24 00:22:00,17.0,15.0,-100.00,SSW,205,0.0,0.0,92,8.50,,,-99.99,,2013-01-24 05:22:00,
2013-01-24 00:33:00,17.0,15.0,-100.00,SW,220,1.0,1.0,92,6.22,,,-99.99,,2013-01-24 05:33:00,
2013-01-24 00:42:00,17.0,15.0,-100.00,WSW,245,0.0,1.0,93,3.39,,,-99.99,,2013-01-24 05:42:00,
2013-01-24 00:52:00,17.0,16.0,-100.00,SSW,210,0.0,0.0,93,13.58,,,-99.99,,2013-01-24 05:52:00,
2013-01-24 01:03:00,17.0,15.0,-100.00,SW,215,0.0,0.0,93,3.39,,,-99.99,,2013-01-24 06:03:00,
2013-01-24 01:12:00,17.0,15.0,-100.00,SW,215,0.0,0.0,93,2.24,,,-99.99,,2013-01-24 06:12:00,
2013-01-24 01:22:00,17.0,16.0,-100.00,SW,215,0.0,0.0,93,2.83,,,-99.99,,2013-01-24 06:22:00,
2013-01-24 01:32:00,17.0,16.0,-100.00,WSW,255,0.0,0.0,93,0.55,,,-99.99,,2013-01-24 06:32:00,
2013-01-24 01:42:00,17.0,16.0,-100.00,West,275,0.0,0.0,94,9.06,,,-99.99,,2013-01-24 06:42:00,
2013-01-24 01:52:00,17.0,16.0,-100.00,West,265,1.0,3.0,94,2.83,,,-99.99,,2013-01-24 06:52:00,
2013-01-24 02:03:00,17.0,16.0,-100.00,WNW,285,0.0,2.0,94,6.77,,,-99.99,,2013-01-24 07:03:00,
2013-01-24 02:12:00,17.0,16.0,-100.00,West,280,2.0,4.0,94,1.69,,,-99.99,,2013-01-24 07:12:00,
2013-01-24 02:23:00,17.0,16.0,-100.00,NNE,15,1.0,6.0,94,6.22,,,-99.99,,2013-01-24 07:23:00,
2013-01-24 02:33:00,17.0,16.0,-100.00,WNW,300,1.0,4.0,94,13.03,,,-99.99,,2013-01-24 07:33:00,
2013-01-24 02:43:00,17.0,16.0,-100.00,NNW,335,1.0,4.0,94,27.76,,,-99.99,,2013-01-24 07:43:00,
2013-01-24 02:52:00,17.0,16.0,-100.00,North,0,2.0,5.0,94,0.55,,,-99.99,,2013-01-24 07:52:00,
2013-01-24 03:02:00,17.0,15.0,-100.00,NNW,340,1.0,6.0,94,0.00,,,-99.99,,2013-01-24 08:02:00,
2013-01-24 03:12:00,16.0,15.0,-100.00,NNW,340,1.0,6.0,94,0.00,,,-99.99,,2013-01-24 08:12:00,
2013-01-24 03:23:00,15.0,14.0,-100.00,WNW,295,1.0,9.0,94,0.00,,,-99.99,,2013-01-24 08:23:00,
2013-01-24 03:33:00,14.0,13.0,-100.00,NW,320,1.0,6.0,94,0.00,,,-99.99,,2013-01-24 08:33:00,
2013-01-24 03:43:00,14.0,13.0,-100.00,North,0,1.0,7.0,94,0.00,,,-99.99,,2013-01-24 08:43:00,
2013-01-24 03:52:00,15.0,14.0,-100.00,NW,305,2.0,8.0,94,0.00,,,-99.99,,2013-01-24 08:52:00,
2013-01-24 04:03:00,15.0,13.0,-100.00,NNW,345,2.0,6.0,94,0.00,,,-99.99,,2013-01-24 09:03:00,
2013-01-24 04:13:00,15.0,13.0,-100.00,NNW,345,2.0,8.0,94,0.00,,,-99.99,,2013-01-24 09:13:00,
2013-01-24 04:23:00,15.0,13.0,-100.00,NW,320,1.0,7.0,94,0.00,,,-99.99,,2013-01-24 09:23:00,
2013-01-24 04:33:00,14.0,13.0,-100.00,North,5,1.0,6.0,94,0.00,,,-99.99,,2013-01-24 09:33:00,
2013-01-24 04:43:00,14.0,12.0,-100.00,SW,235,1.0,7.0,94,0.00,,,-99.99,,2013-01-24 09:43:00,
2013-01-24 04:52:00,13.0,12.0,-100.00,WNW,285,1.0,4.0,94,0.00,,,-99.99,,2013-01-24 09:52:00,
2013-01-24 05:03:00,13.0,11.0,-100.00,North,5,1.0,4.0,93,0.00,,,-99.99,,2013-01-24 10:03:00,
2013-01-24 05:12:00,13.0,11.0,-100.00,WNW,290,1.0,5.0,93,0.00,,,-99.99,,2013-01-24 10:12:00,
2013-01-24 05:23:00,13.0,11.0,-100.00,North,0,1.0,7.0,93,0.00,,,-99.99,,2013-01-24 10:23:00,
2013-01-24 05:33:00,12.0,11.0,-100.00,WNW,290,0.0,6.0,93,0.00,,,-99.99,,2013-01-24 10:33:00,
2013-01-24 05:43:00,12.0,10.0,-100.00,NNW,335,1.0,6.0,93,0.00,,,-99.99,,2013-01-24 10:43:00,
2013-01-24 05:52:00,10.0,8.0,-100.00,North,355,1.0,4.0,92,0.00,,,-99.99,,2013-01-24 10:52:00,
2013-01-24 06:03:00,8.0,6.0,-100.00,WNW,300,1.0,3.0,92,0.00,,,-99.99,,2013-01-24 11:03:00,
2013-01-24 06:12:00,7.0,5.0,-100.00,North,0,0.0,3.0,92,0.00,,,-99.99,,2013-01-24 11:12:00,
2013-01-24 06:23:00,6.0,4.0,-100.00,WNW,285,0.0,1.0,92,0.00,,,-99.99,,2013-01-24 11:23:00,
2013-01-24 06:33:00,6.0,4.0,-100.00,West,265,0.0,0.0,92,0.00,,,-99.99,,2013-01-24 11:33:00,
2013-01-24 06:43:00,5.0,3.0,-100.00,NW,320,0.0,0.0,92,0.00,,,-99.99,,2013-01-24 11:43:00,
2013-01-24 06:53:00,5.0,3.0,-100.00,WNW,300,0.0,0.0,92,0.00,,,-99.99,,2013-01-24 11:53:00,
2013-01-24 07:03:00,5.0,3.0,-100.00,WSW,240,0.0,1.0,92,0.00,,,-99.99,,2013-01-24 12:03:00,
2013-01-24 07:12:00,4.0,2.0,-100.00,NW,305,0.0,2.0,92,0.00,,,-99.99,,2013-01-24 12:12:00,
2013-01-24 07:23:00,4.0,2.0,-100.00,WNW,290,0.0,1.0,92,0.00,,,-99.99,,2013-01-24 12:23:00,
2013-01-24 07:33:00,4.0,2.0,-100.00,WNW,295,0.0,1.0,92,0.00,,,-99.99,,2013-01-24 12:33:00,
2013-01-24 07:43:00,4.0,2.0,-100.00,West,260,1.0,2.0,92,0.00,,,-99.99,,2013-01-24 12:43:00,
2013-01-24 07:53:00,4.0,3.0,-100.00,WSW,245,0.0,3.0,93,0.00,,,-99.99,,2013-01-24 12:53:00,
2013-01-24 08:03:00,5.0,3.0,-100.00,WSW,250,0.0,0.0,93,0.00,,,-99.99,,2013-01-24 13:03:00,
2013-01-24 08:13:00,5.0,3.0,-100.00,West,270,0.0,1.0,93,0.00,,,-99.99,,2013-01-24 13:13:00,
2013-01-24 08:23:00,5.0,3.0,-100.00,West,280,1.0,2.0,93,0.00,,,-99.99,,2013-01-24 13:23:00,
2013-01-24 08:33:00,4.0,2.0,-100.00,WNW,290,0.0,3.0,93,0.00,,,-99.99,,2013-01-24 13:33:00,
2013-01-24 08:43:00,4.0,3.0,-100.00,West,275,0.0,2.0,93,0.00,,,-99.99,,2013-01-24 13:43:00,
2013-01-24 08:53:00,4.0,3.0,-100.00,West,280,1.0,2.0,93,0.00,,,-99.99,,2013-01-24 13:53:00,
2013-01-24 09:03:00,6.0,4.0,-100.00,WNW,285,2.0,2.0,93,0.00,,,-99.99,,2013-01-24 14:03:00,
2013-01-24 09:12:00,9.0,7.0,-100.00,WNW,285,4.0,7.0,94,0.00,,,-99.99,,2013-01-24 14:12:00,
2013-01-24 09:23:00,10.0,9.0,-100.00,WNW,300,2.0,6.0,94,0.00,,,-99.99,,2013-01-24 14:23:00,
2013-01-24 09:33:00,12.0,10.0,-100.00,WNW,295,2.0,6.0,94,0.00,,,-99.99,,2013-01-24 14:33:00,
2013-01-24 09:43:00,13.0,11.0,-100.00,West,280,1.0,6.0,94,0.00,,,-99.99,,2013-01-24 14:43:00,
2013-01-24 09:53:00,15.0,13.0,-100.00,NNW,345,1.0,2.0,94,0.00,,,-99.99,,2013-01-24 14:53:00,
2013-01-24 10:04:00,15.0,13.0,-100.00,NNE,15,1.0,4.0,90,0.00,,,-99.99,,2013-01-24 15:04:00,
2013-01-24 10:12:00,16.0,12.0,-100.00,West,280,2.0,7.0,86,0.00,,,-99.99,,2013-01-24 15:12:00,
2013-01-24 10:23:00,17.0,12.0,-100.00,WNW,300,0.0,2.0,81,0.00,,,-99.99,,2013-01-24 15:23:00,
2013-01-24 10:33:00,19.0,13.0,-100.00,NNW,345,1.0,4.0,77,0.00,,,-99.99,,2013-01-24 15:33:00,
2013-01-24 10:43:00,19.0,11.0,-100.00,WSW,240,1.0,6.0,73,0.00,,,-99.99,,2013-01-24 15:43:00,
2013-01-24 10:53:00,20.0,12.0,-100.00,North,5,1.0,4.0,69,0.00,,,-99.99,,2013-01-24 15:53:00,
2013-01-24 11:04:00,21.0,12.0,-100.00,WNW,295,1.0,6.0,67,0.00,,,-99.99,,2013-01-24 16:04:00,
2013-01-24 11:12:00,21.0,12.0,-100.00,NNE,15,1.0,4.0,66,0.00,,,-99.99,,2013-01-24 16:12:00,
2013-01-24 11:23:00,21.0,11.0,-100.00,NNE,20,1.0,4.0,64,0.00,,,-99.99,,2013-01-24 16:23:00,
2013-01-24 11:33:00,21.0,11.0,-100.00,WNW,300,1.0,6.0,63,0.00,,,-99.99,,2013-01-24 16:33:00,
2013-01-24 11:42:00,21.0,11.0,-100.00,WNW,300,1.0,6.0,63,0.00,,,-99.99,,2013-01-24 16:42:00,
2013-01-24 12:03:00,23.0,11.0,-100.00,NNE,15,2.0,5.0,59,0.00,,,-99.99,,2013-01-24 17:03:00,
2013-01-24 12:12:00,21.0,10.0,-100.00,North,0,4.0,10.0,61,0.00,,,-99.99,,2013-01-24 17:12:00,
2013-01-24 12:22:00,22.0,11.0,-100.00,North,10,4.0,9.0,62,0.00,,,-99.99,,2013-01-24 17:22:00,
2013-01-24 12:32:00,22.0,11.0,-100.00,WNW,300,2.0,11.0,62,0.00,,,-99.99,,2013-01-24 17:32:00,
2013-01-24 12:42:00,21.0,10.0,-100.00,WNW,285,2.0,9.0,62,0.00,,,-99.99,,2013-01-24 17:42:00,
2013-01-24 12:52:00,21.0,10.0,-100.00,North,0,4.0,9.0,62,0.00,,,-99.99,,2013-01-24 17:52:00,
2013-01-24 13:03:00,23.0,11.0,-100.00,NE,40,4.0,7.0,59,0.00,,,-99.99,,2013-01-24 18:03:00,
2013-01-24 13:12:00,23.0,10.0,-100.00,North,0,3.0,6.0,57,0.00,,,-99.99,,2013-01-24 18:12:00,
2013-01-24 13:22:00,22.0,9.0,-100.00,NNE,20,4.0,7.0,57,0.00,,,-99.99,,2013-01-24 18:22:00,
2013-01-24 13:33:00,25.0,11.0,-100.00,NNE,20,4.0,5.0,55,0.00,,,-99.99,,2013-01-24 18:33:00,
2013-01-24 13:42:00,24.0,10.0,-100.00,NE,45,3.0,6.0,52,0.00,,,-99.99,,2013-01-24 18:42:00,
2013-01-24 13:53:00,23.0,8.0,-100.00,NNE,20,4.0,10.0,51,0.00,,,-99.99,,2013-01-24 18:53:00,
2013-01-24 14:02:00,24.0,9.0,-100.00,North,0,2.0,5.0,51,0.00,,,-99.99,,2013-01-24 19:02:00,
2013-01-24 14:12:00,25.0,9.0,-100.00,North,5,4.0,6.0,50,0.00,,,-99.99,,2013-01-24 19:12:00,
2013-01-24 14:22:00,23.0,7.0,-100.00,NNW,330,2.0,6.0,50,0.00,,,-99.99,,2013-01-24 19:22:00,
2013-01-24 14:33:00,24.0,8.0,-100.00,North,10,2.0,5.0,50,0.00,,,-99.99,,2013-01-24 19:33:00,
2013-01-24 14:42:00,24.0,8.0,-100.00,NW,320,3.0,5.0,49,0.00,,,-99.99,,2013-01-24 19:42:00,
2013-01-24 14:52:00,26.0,9.0,-100.00,NNW,345,1.0,6.0,49,0.00,,,-99.99,,2013-01-24 19:52:00,
2013-01-24 15:02:00,23.0,7.0,-100.00,North,0,4.0,7.0,49,0.00,,,-99.99,,2013-01-24 20:02:00,
2013-01-24 15:11:00,21.0,5.0,-100.00,North,0,0.0,4.0,50,0.00,,,-99.99,,2013-01-24 20:11:00,
2013-01-24 15:22:00,22.0,7.0,-100.00,West,260,2.0,4.0,51,0.00,,,-99.99,,2013-01-24 20:22:00,
2013-01-24 15:33:00,24.0,8.0,-100.00,West,275,3.0,4.0,50,0.00,,,-99.99,,2013-01-24 20:33:00,
2013-01-24 15:42:00,25.0,9.0,-100.00,NNE,20,1.0,5.0,49,0.00,,,-99.99,,2013-01-24 20:42:00,
2013-01-24 15:52:00,24.0,7.0,-100.00,North,0,2.0,6.0,47,0.00,,,-99.99,,2013-01-24 20:52:00,
2013-01-24 16:03:00,23.0,6.0,-100.00,NNE,25,3.0,7.0,47,0.00,,,-99.99,,2013-01-24 21:03:00,
2013-01-24 16:12:00,22.0,5.0,-100.00,North,5,2.0,4.0,47,0.00,,,-99.99,,2013-01-24 21:12:00,
2013-01-24 16:22:00,21.0,5.0,-100.00,NNW,335,1.0,2.0,47,0.00,,,-99.99,,2013-01-24 21:22:00,
2013-01-24 16:33:00,21.0,5.0,-100.00,NNW,335,0.0,3.0,47,0.00,,,-99.99,,2013-01-24 21:33:00,
2013-01-24 16:43:00,21.0,5.0,-100.00,NNW,340,0.0,2.0,48,0.00,,,-99.99,,2013-01-24 21:43:00,
2013-01-24 16:52:00,21.0,5.0,-100.00,NW,325,1.0,2.0,49,0.00,,,-99.99,,2013-01-24 21:52:00,
2013-01-24 17:03:00,20.0,5.0,-100.00,North,0,1.0,6.0,51,0.00,,,-99.99,,2013-01-24 22:03:00,
2013-01-24 17:12:00,20.0,5.0,-100.00,North,355,2.0,4.0,52,0.00,,,-99.99,,2013-01-24 22:12:00,
2013-01-24 17:22:00,19.0,5.0,-100.00,NNE,20,1.0,6.0,52,0.00,,,-99.99,,2013-01-24 22:22:00,
2013-01-24 17:33:00,19.0,5.0,-100.00,North,0,1.0,4.0,53,0.00,,,-99.99,,2013-01-24 22:33:00,
2013-01-24 17:42:00,19.0,5.0,-100.00,NE,35,1.0,4.0,54,0.00,,,-99.99,,2013-01-24 22:42:00,
2013-01-24 17:52:00,18.0,5.0,-100.00,North,0,1.0,6.0,55,0.00,,,-99.99,,2013-01-24 22:52:00,
2013-01-24 18:03:00,18.0,5.0,-100.00,NNE,20,2.0,4.0,56,0.00,,,-99.99,,2013-01-24 23:03:00,
2013-01-24 18:12:00,17.0,4.0,-100.00,NNE,15,0.0,4.0,56,0.00,,,-99.99,,2013-01-24 23:12:00,
2013-01-24 18:22:00,17.0,5.0,-100.00,NNE,25,2.0,6.0,58,0.00,,,-99.99,,2013-01-24 23:22:00,
2013-01-24 18:32:00,17.0,5.0,-100.00,North,10,1.0,4.0,58,0.00,,,-99.99,,2013-01-24 23:32:00,
2013-01-24 18:42:00,17.0,5.0,-100.00,ENE,60,2.0,4.0,59,0.00,,,-99.99,,2013-01-24 23:42:00,
2013-01-24 18:52:00,16.0,5.0,-100.00,ENE,70,0.0,3.0,60,0.00,,,-99.99,,2013-01-24 23:52:00,
2013-01-24 19:02:00,16.0,5.0,-100.00,NNE,30,1.0,4.0,60,0.00,,,-99.99,,2013-01-25 00:02:00,
2013-01-24 19:12:00,15.0,5.0,-100.00,NE,45,1.0,2.0,61,0.00,,,-99.99,,2013-01-25 00:12:00,
2013-01-24 19:22:00,15.0,4.0,-100.00,East,90,1.0,2.0,62,0.00,,,-99.99,,2013-01-25 00:22:00,
2013-01-24 19:32:00,15.0,5.0,-100.00,NE,45,1.0,3.0,63,0.00,,,-99.99,,2013-01-25 00:32:00,
2013-01-24 19:42:00,15.0,5.0,-100.00,ENE,75,0.0,2.0,64,0.00,,,-99.99,,2013-01-25 00:42:00,
2013-01-24 19:52:00,15.0,5.0,-100.00,NE,55,0.0,0.0,64,0.00,,,-99.99,,2013-01-25 00:52:00,
2013-01-24 20:02:00,14.0,4.0,-100.00,NE,45,0.0,0.0,65,0.00,,,-99.99,,2013-01-25 01:02:00,
2013-01-24 20:12:00,13.0,4.0,-100.00,NE,45,0.0,0.0,65,0.00,,,-99.99,,2013-01-25 01:12:00,
2013-01-24 20:22:00,13.0,4.0,-100.00,ESE,110,1.0,2.0,65,0.00,,,-99.99,,2013-01-25 01:22:00,
2013-01-24 20:32:00,14.0,5.0,-100.00,ESE,115,0.0,2.0,66,0.00,,,-99.99,,2013-01-25 01:32:00,
2013-01-24 20:42:00,13.0,5.0,-100.00,East,100,1.0,2.0,67,0.00,,,-99.99,,2013-01-25 01:42:00,
2013-01-24 20:52:00,13.0,5.0,-100.00,ESE,110,1.0,3.0,68,0.00,,,-99.99,,2013-01-25 01:52:00,
2013-01-24 21:02:00,13.0,5.0,-100.00,East,90,0.0,3.0,68,0.00,,,-99.99,,2013-01-25 02:02:00,
2013-01-24 21:11:00,13.0,5.0,-100.00,ESE,110,0.0,0.0,69,0.00,,,-99.99,,2013-01-25 02:11:00,
2013-01-24 21:22:00,13.0,5.0,-100.00,East,95,2.0,3.0,70,0.00,,,-99.99,,2013-01-25 02:22:00,
2013-01-24 21:32:00,13.0,5.0,-100.00,ESE,105,2.0,3.0,70,0.00,,,-99.99,,2013-01-25 02:32:00,
2013-01-24 21:42:00,13.0,6.0,-100.00,ESE,105,2.0,3.0,71,0.00,,,-99.99,,2013-01-25 02:42:00,
2013-01-24 21:52:00,13.0,6.0,-100.00,East,100,0.0,4.0,72,0.00,,,-99.99,,2013-01-25 02:52:00,
2013-01-24 22:02:00,14.0,7.0,-100.00,East,90,1.0,2.0,72,0.00,,,-99.99,,2013-01-25 03:02:00,
2013-01-24 22:12:00,14.0,7.0,-100.00,East,85,2.0,3.0,73,0.00,,,-99.99,,2013-01-25 03:12:00,
2013-01-24 22:22:00,15.0,8.0,-100.00,East,95,2.0,4.0,73,0.00,,,-99.99,,2013-01-25 03:22:00,
2013-01-24 22:33:00,15.0,8.0,-100.00,ESE,105,3.0,4.0,73,0.00,,,-99.99,,2013-01-25 03:33:00,
2013-01-24 22:42:00,15.0,8.0,-100.00,ESE,115,2.0,4.0,73,0.00,,,-99.99,,2013-01-25 03:42:00,
2013-01-24 22:52:00,15.0,8.0,-100.00,ESE,105,2.0,4.0,73,0.00,,,-99.99,,2013-01-25 03:52:00,
2013-01-24 23:02:00,15.0,8.0,-100.00,ESE,120,2.0,4.0,73,0.00,,,-99.99,,2013-01-25 04:02:00,
2013-01-24 23:12:00,15.0,8.0,-100.00,East,95,0.0,3.0,73,0.00,,,-99.99,,2013-01-25 04:12:00,
2013-01-24 23:22:00,15.0,8.0,-100.00,ENE,75,0.0,3.0,73,0.00,,,-99.99,,2013-01-25 04:22:00,
2013-01-24 23:32:00,16.0,9.0,-100.00,East,100,4.0,6.0,73,0.00,,,-99.99,,2013-01-25 04:32:00,
2013-01-24 23:42:00,16.0,8.0,-100.00,East,95,4.0,6.0,72,0.00,,,-99.99,,2013-01-25 04:42:00,
2013-01-24 23:51:00,16.0,9.0,-100.00,ESE,105,2.0,5.0,72,0.00,,,-99.99,,2013-01-25 04:51:00,